Satellite: NOAA-17
Catalog number: 27453
Epoch time:      10350.51957994
Element set:     104
Inclination:      098.4073 deg
RA of node:       033.3866 deg
Eccentricity:    0.0011172
Arg of perigee:   328.6243 deg
Mean anomaly:     031.4278 deg
Mean motion:   14.24219161 rev/day
Decay rate:       1.68e-06 rev/day^2
Epoch rev:           44065
Checksum:              292

Satellite: NOAA-18
Catalog number: 28654
Epoch time:      10350.49134474
Element set:     592
Inclination:      098.9736 deg
RA of node:       296.4242 deg
Eccentricity:    0.0013599
Arg of perigee:   259.5344 deg
Mean anomaly:     100.4302 deg
Mean motion:   14.11418321 rev/day
Decay rate:       2.86e-06 rev/day^2
Epoch rev:           28715
Checksum:              310

Satellite: NOAA-19
Catalog number: 33591
Epoch time:      10350.51926593
Element set:     784
Inclination:      098.8093 deg
RA of node:       288.9266 deg
Eccentricity:    0.0014689
Arg of perigee:   131.1812 deg
Mean anomaly:     229.0617 deg
Mean motion:   14.11113545 rev/day
Decay rate:       2.82e-06 rev/day^2
Epoch rev:            9562
Checksum:              319

/EX
SB KEPS @ AMSAT  $ORB10350.M
Orbital Elements  10350.MISC

HR AMSAT ORBITAL ELEMENTS FOR MANNED AND MISCELLANEOUS SATELLITES
FROM WA5QGD FORT WORTH,TX December 16, 2010
Send Subscribe/unsubscribe to KEPS at http://www.amsat.org/mailman/listinfo/kep
BID: ORB10350.M
TO ALL RADIO AMATEURS BT

Satellite: HUBBLE
Catalog number: 20580
Epoch time:      10349.82996429
Element set:     688
Inclination:      028.4683 deg
RA of node:       133.9318 deg
Eccentricity:    0.0003271
Arg of perigee:   330.3731 deg
Mean anomaly:     029.6707 deg
Mean motion:   15.01116541 rev/day
Decay rate:       4.77e-06 rev/day^2
Epoch rev:           93207
Checksum:              299

Satellite: ISS
Catalog number: 25544
Epoch time:      10351.08145596
Element set:     471
Inclination:      051.6476 deg
RA of node:       014.4046 deg
Eccentricity:    0.0008022
Arg of perigee:   357.9586 deg
Mean anomaly:     036.2341 deg
Mean motion:   15.73344162 rev/day
Decay rate:     1.8521e-04 rev/day^2
Epoch rev:           69224
Checksum:              285

Satellite: CO-58
Catalog number: 28895
Epoch time:      10349.67320392
Element set:    0753
Inclination:      097.9916 deg
RA of node:       227.8739 deg
Eccentricity:    0.0019010
Arg of perigee:   076.3393 deg
Mean anomaly:     283.9939 deg
Mean motion:   14.59980011 rev/day
Decay rate:       2.63e-06 rev/day^2
Epoch rev:           27346
Checksum:              354

Satellite: FALCON
Catalog number: 30776
Epoch time:      10349.52858553
Element set:     979
Inclination:      035.4340 deg
RA of node:       023.0713 deg
Eccentricity:    0.0001699
Arg of perigee:   314.7310 deg
Mean anomaly:     045.3268 deg
Mean motion:   15.04009180 rev/day
Decay rate:       9.09e-06 rev/day^2
Epoch rev:           20737
Checksum:              287

Satellite: MAST
Catalog number: 31126
Epoch time:      10349.67005652
Element set:    0037
Inclination:      097.9179 deg
RA of node:       022.0853 deg
Eccentricity:    0.0095325
Arg of perigee:   022.3006 deg
Mean anomaly:     338.2269 deg
Mean motion:   14.53654163 rev/day
Decay rate:       1.73e-06 rev/day^2
Epoch rev:           19442
Checksum:              281

Satellite: CAPE1
Catalog number: 31130
Epoch time:      10350.58524641
Element set:      56
Inclination:      097.9194 deg
RA of node:       020.0132 deg
Eccentricity:    0.0102997
Arg of perigee:   028.8372 deg
Mean anomaly:     331.8452 deg
Mean motion:   14.52266505 rev/day
Decay rate:       1.65e-06 rev/day^2
Epoch rev:           19413
Checksum:              270

Satellite: COMPASS
Catalog number: 32787
Epoch time:      10350.73953860
Element set:     856
Inclination:      097.8740 deg
RA of node:       052.7810 deg
Eccentricity:    0.0016676
Arg of perigee:   053.6231 deg
Mean anomaly:     306.6598 deg
Mean motion:   14.82079938 rev/day
Decay rate:       6.01e-06 rev/day^2
Epoch rev:           14253
Checksum:              319

Satellite: AAUSAT2
Catalog number: 32788
Epoch time:      10349.71163816
Element set:    0847
Inclination:      097.8733 deg
RA of node:       051.9410 deg
Eccentricity:    0.0016132
Arg of perigee:   057.8550 deg
Mean anomaly:     302.4195 deg
Mean motion:   14.82236929 rev/day
Decay rate:       6.00e-06 rev/day^2
Epoch rev:           14239
Checksum:              303

Satellite: DO-64
Catalog number: 32789
Epoch time:      10349.89922234
Element set:    0865
Inclination:      097.8819 deg
RA of node:       052.8282 deg
Eccentricity:    0.0016270
Arg of perigee:   056.0056 deg
Mean anomaly:     304.2674 deg
Mean motion:   14.82494479 rev/day
Decay rate:      1.268e-05 rev/day^2
Epoch rev:           14242
Checksum:              338

Satellite: CO-66
Catalog number: 32791
Epoch time:      10349.30432522
Element set:    0849
Inclination:      097.8748 deg
RA of node:       051.3562 deg
Eccentricity:    0.0016983
Arg of perigee:   057.0472 deg
Mean anomaly:     303.2340 deg
Mean motion:   14.81830225 rev/day
Decay rate:       5.09e-06 rev/day^2
Epoch rev:           14227
Checksum:              299

